User: anonymous   Login
Location: Canyon Rim
(40.8777°N, 111.8641°W)
Time: 03:37:03
(UTC+00:00)
Language:

SO-50 - Orbit

View from above orbital plane
View from above orbital plane
View from above satellite
View from above satellite

Ground track
Ground track

The orbit data is extracted from the following two-line orbital elements,

1 27607U 02058C   21174.53497302 -.00000020  00000-0  17650-4 0  9991
2 27607  64.5560 319.7485 0041296  18.9650 341.2979 14.75759165995422
Epoch (UTC): 23 June 2021 12:50:21
Eccentricity: 0.0041296
inclination: 64.5560°
perigee height: 614 km
apogee height: 672 km
right ascension of ascending node: 319.7485°
argument of perigee: 18.9650°
revolutions per day: 14.75759165
mean anomaly at epoch: 341.2979°
orbit number at epoch: 99542

The dashed part of the orbit path shows where the satellite is in the earth's shadow,  

DLR